Weather History for Cape Girardeau, MO

Change the Weather History Date:

Saturday, March 2, 2013

  Actual Average Record
Temperature  
Mean Temperature 32 °F 43 °F  
Max Temperature 35 °F 53 °F 76 °F (2012)
Min Temperature 28 °F 32 °F 7 °F (1980)
Degree Days  
Heating Degree Days 33 22  
Month to date heating degree days 64 45  
Since 1 July heating degree days 3303 3542  
Cooling Degree Days 0 0  
Month to date cooling degree days 0 0  
Year to date cooling degree days 0 0  
Moisture  
Dew Point 23 °F    
Average Humidity 70    
Maximum Humidity 85    
Minimum Humidity 54    
Precipitation  
Precipitation T in 0.11 in 0.82 in (1993)
Month to date precipitation T 0.23  
Year to date precipitation 6.62 7.11  
Sea Level Pressure  
Sea Level Pressure 30.21 in    
Wind  
Wind Speed 12 mph (NNW)    
Max Wind Speed 23 mph    
Max Gust Speed 29 mph    
Visibility 9 miles    
Events Snow    
T = Trace of Precipitation, MM = Missing Value Source: NWS Daily Summary

Daily Weather History Graph

Daily Weather History Graph

Search for Another Location

Airport:

Trip Planner

Search our weather history database for the weather conditions in past years. The results will help you decide how hot, cold, wet, or windy it might be!

Date:

Astronomy

Mar. 02, 2013 Rise Set
Actual Time 6:27 AM CST 5:53 PM CST
Civil Twilight 6:01 AM CST 6:19 PM CST
Nautical Twilight 5:31 AM CST 6:49 PM CST
Astronomical Twilight 5:01 AM CST 7:20 PM CST
Moon 11:24 PM CST (3/2) 9:03 AM CST (3/2)
Length of Visible Light 12h 18m
Length of Day
11h 25m
Waning Gibbous, 74% of the Moon is Illuminated
Mar 2
Waning Gibbous
Mar 4
Last Quarter
Mar 11
New
Mar 19
First Quarter
Mar 27
Full

Hourly Weather History & Observations

Time (CST) Temp. Windchill Dew Point Humidity Pressure Visibility Wind Dir Wind Speed Gust Speed Precip Events Conditions
12:53 AM 30.0 °F 21.7 °F 26.1 °F 85% 30.17 in 7.0 mi NNW 9.2 mph - N/A   Overcast
1:33 AM 30.2 °F 22.6 °F 26.6 °F 86% 30.16 in 9.0 mi NNW 8.1 mph - N/A   Overcast
1:49 AM 30.2 °F 21.9 °F 26.6 °F 86% 30.16 in 10.0 mi NNW 9.2 mph - N/A   Overcast
1:53 AM 30.0 °F 20.5 °F 26.1 °F 85% 30.17 in 10.0 mi NNW 11.5 mph - N/A   Overcast
2:53 AM 30.0 °F 20.0 °F 26.1 °F 85% 30.15 in 5.0 mi NNW 12.7 mph - 0.00 in Snow Light Snow
3:53 AM 30.0 °F 21.1 °F 25.0 °F 82% 30.15 in 5.0 mi North 10.4 mph - 0.00 in Snow Light Snow
4:53 AM 30.0 °F 19.5 °F 24.1 °F 79% 30.16 in 10.0 mi North 13.8 mph - 0.00 in   Overcast
5:53 AM 30.0 °F 20.0 °F 24.1 °F 79% 30.17 in 10.0 mi NNW 12.7 mph - N/A   Overcast
6:53 AM 30.0 °F 21.1 °F 24.1 °F 79% 30.19 in 10.0 mi NNW 10.4 mph - N/A   Overcast
7:53 AM 30.0 °F 19.5 °F 23.0 °F 75% 30.21 in 10.0 mi NNW 13.8 mph 20.7 mph N/A   Overcast
8:53 AM 30.0 °F 18.7 °F 23.0 °F 75% 30.22 in 10.0 mi North 16.1 mph 24.2 mph N/A   Overcast
9:39 AM 30.2 °F 18.1 °F 24.8 °F 80% 30.22 in 10.0 mi NNW 18.4 mph 28.8 mph N/A   Overcast
9:53 AM 30.9 °F 19.1 °F 24.1 °F 76% 30.23 in 8.0 mi NNW 18.4 mph - 0.00 in Snow Light Snow
10:53 AM 30.9 °F 19.8 °F 24.1 °F 76% 30.24 in 5.0 mi NNW 16.1 mph - 0.00 in Snow Light Snow
11:53 AM 32.0 °F 22.1 °F 24.1 °F 73% 30.23 in 7.0 mi NNW 13.8 mph - 0.00 in Snow Light Snow
12:53 PM 32.0 °F 21.2 °F 23.0 °F 69% 30.22 in 8.0 mi NNW 16.1 mph 21.9 mph 0.00 in Snow Light Snow
1:38 PM 32.0 °F 21.6 °F 23.0 °F 69% 30.20 in 9.0 mi NNW 15.0 mph - 0.00 in Snow Light Snow
1:53 PM 32.0 °F 22.5 °F 23.0 °F 69% 30.21 in 9.0 mi NNW 12.7 mph - 0.00 in   Overcast
2:18 PM 33.8 °F 24.8 °F 21.2 °F 60% 30.20 in 10.0 mi North 12.7 mph - N/A   Overcast
2:53 PM 33.1 °F 23.9 °F 21.9 °F 64% 30.22 in 10.0 mi NNW 12.7 mph - 0.00 in   Overcast
3:53 PM 34.0 °F 24.6 °F 21.0 °F 59% 30.21 in 10.0 mi NW 13.8 mph 24.2 mph 0.00 in   Overcast
4:53 PM 33.1 °F 25.5 °F 21.0 °F 61% 30.22 in 10.0 mi NNW 9.2 mph - N/A   Overcast
5:53 PM 32.0 °F 23.6 °F 19.9 °F 61% 30.23 in 10.0 mi NNW 10.4 mph - N/A   Overcast
6:53 PM 32.0 °F 24.2 °F 19.0 °F 59% 30.24 in 10.0 mi NNW 9.2 mph - N/A   Overcast
7:53 PM 32.0 °F 24.2 °F 17.1 °F 54% 30.24 in 10.0 mi NNW 9.2 mph 17.3 mph N/A   Overcast
8:53 PM 32.0 °F 26.4 °F 18.0 °F 56% 30.25 in 10.0 mi NW 5.8 mph - N/A   Overcast
9:53 PM 30.0 °F 24.1 °F 19.9 °F 66% 30.25 in 10.0 mi WNW 5.8 mph - N/A   Overcast
10:53 PM 28.4 °F 21.2 °F 17.6 °F 64% 30.23 in 10.0 mi NW 6.9 mph - N/A   Partly Cloudy
11:53 PM 28.0 °F 21.7 °F 18.0 °F 66% 30.23 in 10.0 mi NW 5.8 mph - N/A   Clear